Powrót do katalogu

TERRA SAR X

AktywnyNaukaSSO
NORAD 31698·PAYLOAD·🇩🇪 Germany

Wystrzelony Jun 15, 2007 z Baikonur Cosmodrome

Loading…

Następne Przeloty (najbliższe 24 godziny)

TLE

ŚwieżeSource: CelesTrak SupGP

Epoka: Sep 14, 2026, 00:01 UTC

1 31698C 07026A   26257.00118056  .00001394  00000+0  66525-4 0  2576
2 31698  97.4469 263.4493 0001616  94.3340   9.5398 15.19147389    19

Śledź TERRA SAR X w czasie rzeczywistym z AllMySat

Download on the App Store